Flag for Japan Weather past 2 weeks in Fukuoka, Japan

Now
77 °F

Passing clouds.


Feels Like: 78 °F
Forecast: 73 / 83 °F
Wind: 5 mph from South

Location: Fukuoka Airport

Current Time: Aug 22, 2014 at 2:08:47 AM

Latest Report: Aug 22, 2014 at 1:30 AM


Visibility: N/A

Pressure: 29.83 "Hg

Humidity: 94%

Dew point: 75 °F

Location of FukuokaLocation

Historic Weather in Fukuoka — Graph

°F

Fukuoka temperature yesterday

Maximum temperature yesterday: 88 °F (at 12:30 PM)
Minimum temperature yesterday: 77 °F (at 10:30 PM)
Average temperature yesterday: 81 °F

Past Weeks' High & Low Weather Summary

 TemperatureHumidityPressure
High90 °F (Aug 7, 12:00 PM)100% (Aug 10, 1:00 PM)29.95 "Hg (Aug 10, 1:00 PM)
Low70 °F (Aug 11, 5:30 AM)46% (Aug 13, 1:00 PM)29.27 "Hg (Aug 10, 1:30 AM)
Average79 °F82%29.70 "Hg
* Reported Midnight between Aug 6 and Aug 7 — Aug 22 12:30 AM, Fukuoka, Weather by CustomWeather, © 2014

Note: Actual official high and low records may vary slightly from our data, if they occured in-between our weather recording intervals... More about our weather records

Advertising

Fukuoka weather history for previous 24 hours

 ConditionsComfort  
Time TempWeatherWind HumidityBarometerVisibility
12:30 AM
Aug 22
79 °FPartly cloudy.7 mph89%29.86 "HgN/A
12:00 AM79 °FPartly cloudy.8 mph84%29.86 "HgN/A
11:30 PM
Aug 21
77 °FPartly cloudy.3 mph94%29.86 "HgN/A
11:00 PM77 °FPassing clouds.5 mph89%29.86 "HgN/A
10:30 PM77 °FPassing clouds.8 mph89%29.86 "HgN/A
10:00 PM79 °FPassing clouds.7 mph84%29.86 "HgN/A
9:30 PM79 °FSprinkles. Partly cloudy.7 mph84%29.86 "HgN/A
9:00 PM79 °FPassing clouds.5 mph84%29.86 "HgN/A
8:30 PM79 °FPassing clouds.9 mph84%29.86 "HgN/A
8:00 PM79 °FPartly cloudy.7 mph84%29.86 "HgN/A
7:30 PM82 °FSprinkles. Partly cloudy.10 mph70%29.86 "HgN/A
7:00 PM81 °FPartly cloudy.7 mph79%29.83 "HgN/A
6:30 PM82 °FSprinkles. Broken clouds.6 mph74%29.83 "HgN/A
6:00 PM79 °FSprinkles. Broken clouds.5 mph89%29.83 "HgN/A
5:30 PM81 °FSprinkles. Broken clouds.3 mph84%29.83 "HgN/A
5:00 PM81 °FPartly sunny.10 mph84%29.80 "HgN/A
4:30 PM81 °FSprinkles. Broken clouds.10 mph84%29.80 "HgN/A
4:00 PM81 °FSprinkles. Partly sunny.7 mph84%29.80 "HgN/A
3:30 PM81 °FSprinkles. Broken clouds.7 mph84%29.83 "HgN/A
3:00 PM81 °FSprinkles. Broken clouds.8 mph84%29.83 "HgN/A
2:30 PM81 °FSprinkles. Broken clouds.9 mph84%29.83 "HgN/A
2:00 PM82 °FThunderstorms. Broken clouds.9 mph74%29.83 "HgN/A
1:30 PM86 °FSprinkles. Broken clouds.14 mph66%29.83 "HgN/A
1:02 PM86 °FScattered showers. Broken clouds.17 mph66%29.86 "HgN/A
1:00 PM86 °FScattered showers. Broken clouds.17 mph66%29.83 "HgN/A
12:30 PM88 °FScattered showers. Broken clouds.6 mph66%29.86 "HgN/A
12:00 PM86 °FSprinkles. Broken clouds.16 mph62%29.86 "HgN/A
11:30 AM86 °FBroken clouds.17 mph62%29.86 "HgN/A
11:00 AM86 °FBroken clouds.13 mph62%29.83 "HgN/A
10:30 AM84 °FBroken clouds.12 mph70%29.86 "HgN/A
10:00 AM82 °FScattered showers. Broken clouds.12 mph74%29.86 "HgN/A
9:30 AM82 °FScattered showers. Broken clouds.18 mph74%29.86 "HgN/A
8:30 AM82 °FBroken clouds.18 mph74%29.86 "HgN/A
8:00 AM82 °FBroken clouds.18 mph74%29.86 "HgN/A
7:30 AM81 °FBroken clouds.18 mph84%29.83 "HgN/A
7:00 AM79 °FSprinkles. Broken clouds.18 mph84%29.86 "HgN/A
6:30 AM79 °FBroken clouds.18 mph84%29.86 "HgN/A
6:00 AM79 °FBroken clouds.16 mph84%29.86 "HgN/A
5:30 AM79 °FPartly cloudy.14 mph84%29.86 "HgN/A
5:00 AM79 °FPartly cloudy.14 mph84%29.86 "HgN/A
4:30 AM81 °FPartly cloudy.16 mph79%29.83 "HgN/A
4:00 AM79 °FPartly cloudy.15 mph89%29.83 "HgN/A
3:30 AM79 °FPartly cloudy.16 mph89%29.86 "HgN/A
3:00 AM79 °FPassing clouds.16 mph84%29.86 "HgN/A
2:30 AM79 °FPassing clouds.15 mph89%29.86 "HgN/A
2:00 AM79 °FPassing clouds.15 mph89%29.86 "HgN/A
Weather by CustomWeather, © 2014

See weather overviewHow to use our weather pages